Weather History for Sharurah, Saudi Arabia

Change the Weather History Date:

Friday, January 18, 2013

  Actual Average Record
Temperature  
Mean Temperature 56 °F -  
Max Temperature 76 °F 81 °F 91 °F (1999)
Min Temperature 37 °F 55 °F 37 °F (2013)
Degree Days  
Heating Degree Days 8    
Growing Degree Days 6 (Base 50)    
Moisture  
Dew Point 19 °F    
Average Humidity 20    
Maximum Humidity 33    
Minimum Humidity 8    
Precipitation  
Precipitation 0.00 in - - ()
Sea Level Pressure  
Sea Level Pressure 30.14 in    
Wind  
Wind Speed 5 mph ()    
Max Wind Speed 13 mph    
Max Gust Speed -    
Visibility 6.0 miles    
Events      
Averages and records for this station are not official NWS values.
T = Trace of Precipitation, MM = Missing Value Source: Averaged Metar Reports

Daily Weather History Graph

Daily Weather History Graph

Search for Another Location

Airport:

Trip Planner

Search our weather history database for the weather conditions in past years. The results will help you decide how hot, cold, wet, or windy it might be!

Date:

Astronomy

Jan. 18, 2013 Rise Set
Actual Time 6:25 AM AST 5:38 PM AST
Civil Twilight 6:02 AM AST 6:01 PM AST
Nautical Twilight 5:35 AM AST 6:28 PM AST
Astronomical Twilight 5:09 AM AST 6:54 PM AST
Moon 11:00 AM AST (1/18) 11:53 PM AST (1/18)
Length of Visible Light 11h 59m
Length of Day
11h 13m
Waxing Crescent, 44% of the Moon is Illuminated
Jan 18
Waxing Crescent
Jan 19
First Quarter
Jan 27
Full
Feb 3
Last Quarter
Feb 10
New

Hourly Weather History & Observations

Time (AST) Temp. Windchill Dew Point Humidity Pressure Visibility Wind Dir Wind Speed Gust Speed Precip Events Conditions
12:00 AM 49 °F - 14 °F 13% 30.18 in 6 mi East 6.9 mph - -  
12:00 AM 48.2 °F - 14.0 °F 25% 30.21 in - East 6.9 mph - N/A   Clear
1:00 AM 48.2 °F - 14.0 °F 25% 30.18 in - East 5.8 mph - N/A   Clear
2:00 AM 46.4 °F 42.9 °F 12.2 °F 25% 30.18 in - East 6.9 mph - N/A   Clear
3:00 AM 45 °F - 12 °F 14% 30.15 in 6 mi East 8.1 mph - -  
3:00 AM 44.6 °F 40.2 °F 12.2 °F 27% 30.15 in - East 8.1 mph - N/A   Clear
4:00 AM 44.6 °F 40.2 °F 14.0 °F 29% 30.18 in - ENE 8.1 mph - N/A   Clear
5:00 AM 42.8 °F 40.1 °F 14.0 °F 31% 30.18 in - East 4.6 mph - N/A   Clear
6:00 AM 41 °F - 10 °F 16% 30.20 in 6 mi Calm Calm - -  
6:00 AM 41.0 °F - 10.4 °F 29% 30.18 in - Calm Calm - N/A   Clear
7:00 AM 41.0 °F - 14.0 °F 33% 30.21 in - Calm Calm - N/A   Clear
8:00 AM 46.4 °F 44.3 °F 17.6 °F 32% 30.21 in - SE 4.6 mph - N/A   Clear
9:00 AM 55 °F - 23 °F 17% 30.23 in 6 mi ESE 4.6 mph - -  
9:00 AM 55.4 °F - 23.0 °F 29% 30.24 in - ESE 4.6 mph - N/A   Clear
10:00 AM 59.0 °F - 21.2 °F 23% 30.21 in - ESE 6.9 mph - N/A   Clear
11:00 AM 64.4 °F - 21.2 °F 19% 30.18 in - ESE 4.6 mph - N/A   Clear
12:00 PM 68 °F - 21 °F 8% 30.13 in 6 mi SE 6.9 mph - -  
12:00 PM 68.0 °F - 21.2 °F 17% 30.15 in - SE 6.9 mph - N/A   Clear
1:00 PM 71.6 °F - 23.0 °F 16% 30.09 in - ESE 6.9 mph - N/A   Clear
2:00 PM 73.4 °F - 23.0 °F 15% 30.09 in - ESE 6.9 mph - N/A   Clear
3:00 PM 75 °F - 25 °F 8% 30.03 in 6 mi Calm Calm - -  
3:00 PM 75.2 °F - 24.8 °F 15% 30.06 in - Calm Calm - N/A   Clear
4:00 PM 75.2 °F - 23.0 °F 14% 30.06 in - Calm Calm - N/A   Clear
5:00 PM 73.4 °F - 23.0 °F 15% 30.06 in - NE 6.9 mph - N/A   Clear
6:00 PM 69 °F - 21 °F 8% 30.07 in 6 mi East 6.9 mph - -  
6:00 PM 69.8 °F - 21.2 °F 16% 30.09 in - East 6.9 mph - N/A   Clear
7:00 PM 66.2 °F - 19.4 °F 17% 30.09 in - ENE 5.8 mph - N/A   Clear
8:00 PM 64.4 °F - 19.4 °F 18% 30.12 in - ENE 6.9 mph - N/A   Clear
9:00 PM 61 °F - 23 °F 13% 30.09 in 6 mi ENE 6.9 mph - -  
9:00 PM 60.8 °F - 23.0 °F 23% 30.12 in - ENE 6.9 mph - N/A   Clear
10:00 PM 59.0 °F - 24.8 °F 27% 30.15 in - ENE 6.9 mph - N/A   Clear
11:00 PM 55.4 °F - 26.6 °F 33% 30.12 in - East 12.7 mph - N/A   Clear